START_TIME,STEP,MOV.,M35,t_acc.,PL05,t_acc.,PL06,t_acc.,PL07,t_acc.
1979-07-26 06:00:23.250 ,0,1,0.,4.8,1.,4.8,0.,4.8,0.,4.8
1979-07-26 06:00:28.050 ,0,1,0.,4.8,1.,4.8,1.,4.8,0.,4.8
1979-07-26 06:00:32.850 ,0,1,0.,4.8,2.,4.8,0.,4.8,0.,4.8
1979-07-26 06:00:37.650 ,0,1,0.,4.8,3.,4.8,0.,4.8,0.,4.8
1979-07-26 06:00:42.450 ,0,1,0.,4.8,0.,4.8,0.,4.8,0.,4.8
1979-07-26 06:00:47.250 ,4,1,0.,4.8,2.,4.8,1.,4.8,0.,4.8
1979-07-26 06:00:52.050 ,4,1,0.,4.8,2.,4.8,0.,4.8,0.,4.8
1979-07-26 06:00:56.850 ,4,1,0.,4.8,1.,4.8,0.,4.8,0.,4.8
1979-07-26 06:01:01.650 ,4,1,0.,4.8,3.,4.8,0.,4.8,0.,4.8
1979-07-26 06:01:06.450 ,4,1,0.,4.8,0.,4.8,0.,4.8,0.,4.8
1979-07-26 06:01:11.250 ,7,1,0.,4.8,3.,4.8,0.,4.8,0.,4.8
1979-07-26 06:01:16.050 ,7,1,0.,4.8,0.,4.8,0.,4.8,0.,4.8
1979-07-26 06:01:20.850 ,7,1,0.,4.8,1.,4.8,0.,4.8,0.,4.8
1979-07-26 06:01:25.650 ,7,1,0.,4.8,1.,4.8,0.,4.8,0.,4.8
1979-07-26 06:01:30.450 ,7,1,0.,4.8,0.,4.8,1.,4.8,0.,4.8
1979-07-26 06:01:35.250 ,3,1,0.,4.8,2.,4.8,0.,4.8,0.,4.8
1979-07-26 06:01:40.050 ,3,1,0.,4.8,0.,4.8,0.,4.8,0.,4.8
1979-07-26 06:01:44.850 ,3,1,0.,4.8,0.,4.8,0.,4.8,0.,4.8
1979-07-26 06:01:49.650 ,3,1,0.,4.8,0.,4.8,0.,4.8,0.,4.8
1979-07-26 06:01:54.450 ,3,1,0.,4.8,0.,4.8,0.,4.8,0.,4.8
1979-07-26 06:01:59.250 ,0,1,0.,4.8,0.,4.8,0.,4.8,0.,4.8
1979-07-26 06:02:04.050 ,0,1,0.,4.8,0.,4.8,0.,4.8,0.,4.8
1979-07-26 06:02:08.850 ,0,1,0.,4.8,2.,4.8,1.,4.8,0.,4.8
1979-07-26 06:02:13.650 ,0,1,0.,4.8,0.,4.8,1.,4.8,0.,4.8
1979-07-26 06:02:18.450 ,0,1,0.,4.8,2.,4.8,0.,4.8,0.,4.8
1979-07-26 06:02:23.250 ,4,1,0.,4.8,0.,4.8,0.,4.8,0.,4.8
1979-07-26 06:02:28.050 ,4,1,0.,4.8,0.,4.8,0.,4.8,1.,4.8
1979-07-26 06:02:32.850 ,4,1,0.,4.8,2.,4.8,0.,4.8,0.,4.8
1979-07-26 06:02:37.650 ,4,1,0.,4.8,0.,4.8,0.,4.8,0.,4.8
1979-07-26 06:02:42.450 ,4,1,0.,4.8,2.,4.8,0.,4.8,0.,4.8
1979-07-26 06:02:47.250 ,7,1,0.,4.8,0.,4.8,0.,4.8,1.,4.8
1979-07-26 06:02:52.050 ,7,1,0.,4.8,0.,4.8,0.,4.8,1.,4.8
1979-07-26 06:02:56.850 ,7,1,0.,4.8,1.,4.8,0.,4.8,0.,4.8
1979-07-26 06:03:01.650 ,7,1,0.,4.8,0.,4.8,2.,4.8,0.,4.8
1979-07-26 06:03:06.450 ,7,1,0.,4.8,3.,4.8,0.,4.8,0.,4.8
1979-07-26 06:03:11.250 ,3,1,0.,4.8,0.,4.8,0.,4.8,0.,4.8
1979-07-26 06:03:16.050 ,3,1,0.,4.8,3.,4.8,1.,4.8,0.,4.8
1979-07-26 06:03:20.850 ,3,1,0.,4.8,0.,4.8,1.,4.8,0.,4.8
1979-07-26 06:03:25.650 ,3,1,0.,4.8,0.,4.8,0.,4.8,0.,4.8
1979-07-26 06:03:30.450 ,3,1,0.,4.8,0.,4.8,0.,4.8,0.,4.8
1979-07-26 06:03:35.250 ,0,1,0.,4.8,0.,4.8,0.,4.8,0.,4.8
1979-07-26 06:03:40.050 ,0,1,0.,4.8,3.,4.8,0.,4.8,0.,4.8
1979-07-26 06:03:44.850 ,0,1,0.,4.8,0.,4.8,0.,4.8,0.,4.8
1979-07-26 06:03:49.650 ,0,1,0.,4.8,3.,4.8,0.,4.8,0.,4.8
1979-07-26 06:03:54.450 ,0,1,0.,4.8,1.,4.8,1.,4.8,0.,4.8
1979-07-26 06:03:59.250 ,4,1,0.,4.8,2.,4.8,0.,4.8,0.,4.8
1979-07-26 06:04:04.050 ,4,1,0.,4.8,0.,4.8,0.,4.8,0.,4.8
1979-07-26 06:04:08.850 ,4,1,0.,4.8,0.,4.8,0.,4.8,0.,4.8
1979-07-26 06:04:13.650 ,4,1,0.,4.8,1.,4.8,1.,4.8,0.,4.8
1979-07-26 06:04:18.450 ,4,1,0.,4.8,1.,4.8,0.,4.8,0.,4.8
1979-07-26 06:04:23.250 ,7,1,0.,4.8,2.,4.8,1.,4.8,0.,4.8
1979-07-26 06:04:28.050 ,7,1,0.,4.8,1.,4.8,0.,4.8,0.,4.8
1979-07-26 06:04:32.850 ,7,1,0.,4.8,0.,4.8,1.,4.8,0.,4.8
1979-07-26 06:04:37.650 ,7,1,0.,4.8,0.,4.8,0.,4.8,1.,4.8
1979-07-26 06:04:42.450 ,7,1,0.,4.8,0.,4.8,0.,4.8,0.,4.8
1979-07-26 06:04:47.250 ,3,1,0.,4.8,0.,4.8,1.,4.8,0.,4.8
1979-07-26 06:04:52.050 ,3,1,0.,4.8,2.,4.8,2.,4.8,0.,4.8
1979-07-26 06:04:56.850 ,3,1,0.,4.8,0.,4.8,1.,4.8,0.,4.8
1979-07-26 06:05:01.650 ,3,1,0.,4.8,1.,4.8,0.,4.8,0.,4.8
1979-07-26 06:05:06.450 ,3,1,0.,4.8,0.,4.8,0.,4.8,0.,4.8
1979-07-26 06:05:11.250 ,0,1,0.,4.8,1.,4.8,0.,4.8,0.,4.8
1979-07-26 06:05:16.050 ,0,1,0.,4.8,1.,4.8,0.,4.8,0.,4.8
1979-07-26 06:05:20.850 ,0,1,0.,4.8,1.,4.8,0.,4.8,0.,4.8
1979-07-26 06:05:25.650 ,0,1,0.,4.8,0.,4.8,0.,4.8,0.,4.8
1979-07-26 06:05:30.450 ,0,1,0.,4.8,3.,4.8,0.,4.8,0.,4.8
1979-07-26 06:05:35.250 ,0,0,0.,4.8,3.,4.8,0.,4.8,0.,4.8
1979-07-26 06:05:40.050 ,0,0,0.,4.8,1.,4.8,0.,4.8,0.,4.8
1979-07-26 06:05:44.850 ,0,0,0.,4.8,1.,4.8,0.,4.8,0.,4.8
1979-07-26 06:05:49.650 ,0,0,0.,4.8,0.,4.8,0.,4.8,0.,4.8
1979-07-26 06:05:54.450 ,0,0,0.,4.8,0.,4.8,0.,4.8,0.,4.8
1979-07-26 06:05:59.250 ,0,0,0.,4.8,2.,4.8,2.,4.8,0.,4.8
1979-07-26 06:06:04.050 ,0,0,0.,4.8,0.,4.8,0.,4.8,0.,4.8
1979-07-26 06:06:08.850 ,0,0,0.,4.8,0.,4.8,0.,4.8,0.,4.8
1979-07-26 06:06:13.650 ,0,0,0.,4.8,1.,4.8,0.,4.8,0.,4.8
1979-07-26 06:06:18.450 ,0,0,0.,4.8,0.,4.8,0.,4.8,0.,4.8
1979-07-26 06:06:23.250 ,5,0,0.,4.8,1.,4.8,1.,4.8,0.,4.8
1979-07-26 06:06:28.050 ,5,0,0.,4.8,2.,4.8,0.,4.8,0.,4.8
1979-07-26 06:06:32.850 ,5,0,0.,4.8,0.,4.8,0.,4.8,0.,4.8
1979-07-26 06:06:37.650 ,5,0,0.,4.8,2.,4.8,0.,4.8,0.,4.8
1979-07-26 06:06:42.450 ,5,0,0.,4.8,0.,4.8,0.,4.8,0.,4.8
1979-07-26 06:06:47.250 ,5,0,0.,4.8,0.,4.8,0.,4.8,0.,4.8
1979-07-26 06:06:52.050 ,5,0,0.,4.8,0.,4.8,0.,4.8,0.,4.8
1979-07-26 06:06:56.850 ,5,0,0.,4.8,0.,4.8,0.,4.8,0.,4.8
1979-07-26 06:07:01.650 ,5,0,0.,4.8,0.,4.8,0.,4.8,0.,4.8
1979-07-26 06:07:06.450 ,5,0,0.,4.8,0.,4.8,1.,4.8,1.,4.8
1979-07-26 06:07:11.250 ,4,0,0.,4.8,0.,4.8,0.,4.8,0.,4.8
1979-07-26 06:07:16.050 ,4,0,0.,4.8,2.,4.8,0.,4.8,0.,4.8
1979-07-26 06:07:20.850 ,4,0,0.,4.8,1.,4.8,0.,4.8,0.,4.8
1979-07-26 06:07:25.650 ,4,0,0.,4.8,1.,4.8,0.,4.8,0.,4.8
1979-07-26 06:07:30.450 ,4,0,0.,4.8,0.,4.8,0.,4.8,0.,4.8
1979-07-26 06:07:35.250 ,4,0,0.,4.8,0.,4.8,0.,4.8,0.,4.8
1979-07-26 06:07:40.050 ,4,0,0.,4.8,1.,4.8,0.,4.8,0.,4.8
1979-07-26 06:07:44.850 ,4,0,0.,4.8,1.,4.8,0.,4.8,0.,4.8
1979-07-26 06:07:49.650 ,4,0,0.,4.8,0.,4.8,0.,4.8,0.,4.8
1979-07-26 06:07:54.450 ,4,0,0.,4.8,1.,4.8,0.,4.8,0.,4.8
1979-07-26 06:07:59.250 ,3,0,0.,4.8,2.,4.8,0.,4.8,0.,4.8
1979-07-26 06:08:04.050 ,3,0,0.,4.8,0.,4.8,0.,4.8,0.,4.8
1979-07-26 06:08:08.850 ,3,0,0.,4.8,0.,4.8,0.,4.8,0.,4.8
1979-07-26 06:08:13.650 ,3,0,0.,4.8,1.,4.8,0.,4.8,0.,4.8
1979-07-26 06:08:18.450 ,3,0,0.,4.8,1.,4.8,0.,4.8,0.,4.8
1979-07-26 06:08:23.250 ,3,0,0.,4.8,2.,4.8,1.,4.8,0.,4.8
1979-07-26 06:08:28.050 ,3,0,0.,4.8,0.,4.8,0.,4.8,0.,4.8
1979-07-26 06:08:32.850 ,3,0,0.,4.8,0.,4.8,0.,4.8,0.,4.8
1979-07-26 06:08:37.650 ,3,0,0.,4.8,0.,4.8,0.,4.8,0.,4.8
1979-07-26 06:08:42.450 ,3,0,0.,4.8,0.,4.8,0.,4.8,0.,4.8
1979-07-26 06:08:47.250 ,2,0,0.,4.8,0.,4.8,0.,4.8,0.,4.8
1979-07-26 06:08:52.050 ,2,0,0.,4.8,0.,4.8,0.,4.8,0.,4.8
1979-07-26 06:08:56.850 ,2,0,0.,4.8,1.,4.8,1.,4.8,0.,4.8
1979-07-26 06:09:01.650 ,2,0,0.,4.8,0.,4.8,1.,4.8,0.,4.8
1979-07-26 06:09:06.450 ,2,0,0.,4.8,1.,4.8,1.,4.8,0.,4.8
1979-07-26 06:09:11.250 ,2,0,0.,4.8,0.,4.8,1.,4.8,0.,4.8
1979-07-26 06:09:16.050 ,2,0,0.,4.8,1.,4.8,0.,4.8,0.,4.8
1979-07-26 06:09:20.850 ,2,0,0.,4.8,0.,4.8,0.,4.8,1.,4.8
1979-07-26 06:09:25.650 ,2,0,0.,4.8,1.,4.8,0.,4.8,0.,4.8
1979-07-26 06:09:30.450 ,2,0,0.,4.8,1.,4.8,0.,4.8,0.,4.8
1979-07-26 06:09:35.250 ,1,0,0.,4.8,1.,4.8,1.,4.8,0.,4.8
1979-07-26 06:09:40.050 ,1,0,0.,4.8,1.,4.8,0.,4.8,0.,4.8
1979-07-26 06:09:44.850 ,1,0,0.,4.8,0.,4.8,0.,4.8,0.,4.8
1979-07-26 06:09:49.650 ,1,0,0.,4.8,1.,4.8,0.,4.8,0.,4.8
1979-07-26 06:09:54.450 ,1,0,0.,4.8,0.,4.8,0.,4.8,0.,4.8
1979-07-26 06:09:59.250 ,1,0,0.,4.8,2.,4.8,0.,4.8,0.,4.8
1979-07-26 06:10:04.050 ,1,0,0.,4.8,2.,4.8,0.,4.8,0.,4.8
1979-07-26 06:10:08.850 ,1,0,0.,4.8,4.,4.8,0.,4.8,0.,4.8
1979-07-26 06:10:13.650 ,1,0,0.,4.8,1.,4.8,1.,4.8,0.,4.8
1979-07-26 06:10:18.450 ,1,0,0.,4.8,1.,4.8,0.,4.8,0.,4.8
1979-07-26 06:10:23.250 ,0,0,0.,4.8,2.,4.8,0.,4.8,0.,4.8
1979-07-26 06:10:28.050 ,0,0,0.,4.8,2.,4.8,0.,4.8,0.,4.8
1979-07-26 06:10:32.850 ,0,0,0.,4.8,0.,4.8,0.,4.8,0.,4.8
1979-07-26 06:10:37.650 ,0,0,0.,4.8,1.,4.8,0.,4.8,0.,4.8
1979-07-26 06:10:42.450 ,0,0,0.,4.8,2.,4.8,0.,4.8,0.,4.8
1979-07-26 06:10:47.250 ,0,0,0.,4.8,0.,4.8,0.,4.8,0.,4.8
1979-07-26 06:10:52.050 ,0,0,0.,4.8,1.,4.8,0.,4.8,1.,4.8
1979-07-26 06:10:56.850 ,0,0,0.,4.8,1.,4.8,0.,4.8,0.,4.8
1979-07-26 06:11:01.650 ,0,0,0.,4.8,2.,4.8,0.,4.8,0.,4.8
1979-07-26 06:11:06.450 ,0,0,0.,4.8,1.,4.8,1.,4.8,0.,4.8
1979-07-26 06:11:11.250 ,0,0,0.,4.8,2.,4.8,0.,4.8,0.,4.8
1979-07-26 06:11:16.050 ,0,0,0.,4.8,4.,4.8,1.,4.8,0.,4.8
1979-07-26 06:11:20.850 ,0,0,0.,4.8,2.,4.8,0.,4.8,0.,4.8
1979-07-26 06:11:25.650 ,0,0,0.,4.8,1.,4.8,0.,4.8,1.,4.8
1979-07-26 06:11:30.450 ,0,0,0.,4.8,4.,4.8,0.,4.8,0.,4.8
1979-07-26 06:11:35.250 ,0,0,0.,4.8,1.,4.8,0.,4.8,2.,4.8
1979-07-26 06:11:40.050 ,0,0,0.,4.8,3.,4.8,1.,4.8,0.,4.8
1979-07-26 06:11:44.850 ,0,0,0.,4.8,1.,4.8,0.,4.8,0.,4.8
1979-07-26 06:11:49.650 ,0,0,0.,4.8,0.,4.8,1.,4.8,0.,4.8
1979-07-26 06:11:54.450 ,0,0,0.,4.8,1.,4.8,0.,4.8,0.,4.8
1979-07-26 06:11:59.250 ,1,0,0.,4.8,2.,4.8,0.,4.8,0.,4.8
1979-07-26 06:12:04.050 ,1,0,0.,4.8,1.,4.8,0.,4.8,0.,4.8
1979-07-26 06:12:08.850 ,1,0,0.,4.8,0.,4.8,0.,4.8,1.,4.8
1979-07-26 06:12:13.650 ,1,0,0.,4.8,3.,4.8,0.,4.8,0.,4.8
1979-07-26 06:12:18.450 ,1,0,0.,4.8,2.,4.8,1.,4.8,0.,4.8
1979-07-26 06:12:23.250 ,1,0,0.,4.8,0.,4.8,0.,4.8,0.,4.8
1979-07-26 06:12:28.050 ,1,0,0.,4.8,1.,4.8,0.,4.8,0.,4.8
1979-07-26 06:12:32.850 ,1,0,0.,4.8,0.,4.8,0.,4.8,0.,4.8
1979-07-26 06:12:37.650 ,1,0,0.,4.8,4.,4.8,0.,4.8,0.,4.8
1979-07-26 06:12:42.450 ,1,0,0.,4.8,3.,4.8,0.,4.8,0.,4.8
1979-07-26 06:12:47.250 ,2,0,0.,4.8,1.,4.8,0.,4.8,0.,4.8
1979-07-26 06:12:52.050 ,2,0,0.,4.8,2.,4.8,1.,4.8,0.,4.8
1979-07-26 06:12:56.850 ,2,0,0.,4.8,0.,4.8,0.,4.8,0.,4.8
1979-07-26 06:13:01.650 ,2,0,0.,4.8,1.,4.8,0.,4.8,0.,4.8
1979-07-26 06:13:06.450 ,2,0,0.,4.8,0.,4.8,0.,4.8,0.,4.8
1979-07-26 06:13:11.250 ,2,0,0.,4.8,2.,4.8,0.,4.8,1.,4.8
1979-07-26 06:13:16.050 ,2,0,0.,4.8,0.,4.8,0.,4.8,0.,4.8
1979-07-26 06:13:20.850 ,2,0,0.,4.8,0.,4.8,1.,4.8,0.,4.8
1979-07-26 06:13:25.650 ,2,0,0.,4.8,0.,4.8,0.,4.8,1.,4.8
1979-07-26 06:13:30.450 ,2,0,0.,4.8,0.,4.8,0.,4.8,0.,4.8
1979-07-26 06:13:35.250 ,3,0,0.,4.8,1.,4.8,0.,4.8,0.,4.8
1979-07-26 06:13:40.050 ,3,0,0.,4.8,2.,4.8,0.,4.8,0.,4.8
1979-07-26 06:13:44.850 ,3,0,0.,4.8,2.,4.8,0.,4.8,0.,4.8
1979-07-26 06:13:49.650 ,3,0,0.,4.8,0.,4.8,0.,4.8,0.,4.8
1979-07-26 06:13:54.450 ,3,0,0.,4.8,1.,4.8,0.,4.8,0.,4.8
1979-07-26 06:13:59.250 ,3,0,0.,4.8,1.,4.8,1.,4.8,0.,4.8
1979-07-26 06:14:04.050 ,3,0,0.,4.8,0.,4.8,0.,4.8,0.,4.8
1979-07-26 06:14:08.850 ,3,0,0.,4.8,0.,4.8,1.,4.8,0.,4.8
1979-07-26 06:14:13.650 ,3,0,0.,4.8,0.,4.8,0.,4.8,0.,4.8
1979-07-26 06:14:18.450 ,3,0,0.,4.8,2.,4.8,0.,4.8,0.,4.8
1979-07-26 06:14:23.250 ,4,0,0.,4.8,2.,4.8,1.,4.8,0.,4.8
1979-07-26 06:14:28.050 ,4,0,0.,4.8,1.,4.8,0.,4.8,0.,4.8
1979-07-26 06:14:32.850 ,4,0,0.,4.8,0.,4.8,0.,4.8,0.,4.8
1979-07-26 06:14:37.650 ,4,0,0.,4.8,0.,4.8,0.,4.8,2.,4.8
1979-07-26 06:14:42.450 ,4,0,0.,4.8,1.,4.8,0.,4.8,0.,4.8
1979-07-26 06:14:47.250 ,4,0,0.,4.8,0.,4.8,0.,4.8,0.,4.8
1979-07-26 06:14:52.050 ,4,0,0.,4.8,1.,4.8,0.,4.8,0.,4.8
1979-07-26 06:14:56.850 ,4,0,0.,4.8,0.,4.8,0.,4.8,0.,4.8
1979-07-26 06:15:01.650 ,4,0,0.,4.8,1.,4.8,0.,4.8,0.,4.8
1979-07-26 06:15:06.450 ,4,0,0.,4.8,3.,4.8,0.,4.8,0.,4.8
1979-07-26 06:15:11.250 ,5,0,0.,4.8,2.,4.8,0.,4.8,0.,4.8
1979-07-26 06:15:16.050 ,5,0,0.,4.8,0.,4.8,0.,4.8,0.,4.8
1979-07-26 06:15:20.850 ,5,0,0.,4.8,1.,4.8,1.,4.8,0.,4.8
1979-07-26 06:15:25.650 ,5,0,0.,4.8,0.,4.8,0.,4.8,0.,4.8
1979-07-26 06:15:30.450 ,5,0,0.,4.8,3.,4.8,0.,4.8,0.,4.8
1979-07-26 06:15:35.250 ,5,0,0.,4.8,0.,4.8,0.,4.8,0.,4.8
1979-07-26 06:15:40.050 ,5,0,0.,4.8,1.,4.8,0.,4.8,1.,4.8
1979-07-26 06:15:44.850 ,5,0,0.,4.8,1.,4.8,0.,4.8,0.,4.8
1979-07-26 06:15:49.650 ,5,0,0.,4.8,1.,4.8,0.,4.8,0.,4.8
1979-07-26 06:15:54.450 ,5,0,0.,4.8,0.,4.8,0.,4.8,0.,4.8
1979-07-26 06:15:59.250 ,6,0,0.,4.8,2.,4.8,0.,4.8,0.,4.8
1979-07-26 06:16:04.050 ,6,0,0.,4.8,1.,4.8,0.,4.8,0.,4.8
1979-07-26 06:16:08.850 ,6,0,0.,4.8,0.,4.8,0.,4.8,0.,4.8
1979-07-26 06:16:13.650 ,6,0,0.,4.8,0.,4.8,0.,4.8,0.,4.8
1979-07-26 06:16:18.450 ,6,0,0.,4.8,0.,4.8,0.,4.8,0.,4.8
1979-07-26 06:16:23.250 ,6,0,0.,4.8,1.,4.8,0.,4.8,0.,4.8
1979-07-26 06:16:28.050 ,6,0,0.,4.8,1.,4.8,1.,4.8,0.,4.8
1979-07-26 06:16:32.850 ,6,0,0.,4.8,1.,4.8,1.,4.8,0.,4.8
1979-07-26 06:16:37.650 ,6,0,0.,4.8,0.,4.8,1.,4.8,0.,4.8
1979-07-26 06:16:42.450 ,6,0,0.,4.8,0.,4.8,0.,4.8,1.,4.8
1979-07-26 06:16:47.250 ,7,0,0.,4.8,0.,4.8,1.,4.8,0.,4.8
1979-07-26 06:16:52.050 ,7,0,0.,4.8,1.,4.8,1.,4.8,0.,4.8
1979-07-26 06:16:56.850 ,7,0,0.,4.8,0.,4.8,0.,4.8,0.,4.8
1979-07-26 06:17:01.650 ,7,0,0.,4.8,0.,4.8,0.,4.8,0.,4.8
1979-07-26 06:17:06.450 ,7,0,0.,4.8,0.,4.8,0.,4.8,0.,4.8
1979-07-26 06:17:11.250 ,7,0,0.,4.8,0.,4.8,0.,4.8,0.,4.8
1979-07-26 06:17:16.050 ,7,0,0.,4.8,1.,4.8,0.,4.8,0.,4.8
1979-07-26 06:17:20.850 ,7,0,0.,4.8,1.,4.8,0.,4.8,0.,4.8
1979-07-26 06:17:25.650 ,7,0,0.,4.8,0.,4.8,0.,4.8,0.,4.8
1979-07-26 06:17:30.450 ,7,0,0.,4.8,0.,4.8,1.,4.8,0.,4.8
1979-07-26 06:17:35.250 ,7,0,0.,4.8,0.,4.8,0.,4.8,1.,4.8
1979-07-26 06:17:40.050 ,7,0,0.,4.8,0.,4.8,0.,4.8,0.,4.8
1979-07-26 06:17:44.850 ,7,0,0.,4.8,0.,4.8,1.,4.8,0.,4.8
1979-07-26 06:17:49.650 ,7,0,0.,4.8,0.,4.8,0.,4.8,1.,4.8
1979-07-26 06:17:54.450 ,7,0,0.,4.8,0.,4.8,0.,4.8,1.,4.8
1979-07-26 06:17:59.250 ,7,0,0.,4.8,1.,4.8,1.,4.8,0.,4.8
1979-07-26 06:18:04.050 ,7,0,0.,4.8,2.,4.8,0.,4.8,0.,4.8
1979-07-26 06:18:08.850 ,7,0,0.,4.8,0.,4.8,0.,4.8,0.,4.8
1979-07-26 06:18:13.650 ,7,0,0.,4.8,0.,4.8,1.,4.8,0.,4.8
1979-07-26 06:18:18.450 ,7,0,0.,4.8,1.,4.8,0.,4.8,0.,4.8
1979-07-26 06:18:23.250 ,6,0,0.,4.8,1.,4.8,0.,4.8,1.,4.8
1979-07-26 06:18:28.050 ,6,0,0.,4.8,0.,4.8,0.,4.8,0.,4.8
1979-07-26 06:18:32.850 ,6,0,0.,4.8,1.,4.8,0.,4.8,0.,4.8
1979-07-26 06:18:37.650 ,6,0,0.,4.8,0.,4.8,1.,4.8,0.,4.8
1979-07-26 06:18:42.450 ,6,0,0.,4.8,1.,4.8,0.,4.8,0.,4.8
1979-07-26 06:18:47.250 ,6,0,0.,4.8,2.,4.8,0.,4.8,0.,4.8
1979-07-26 06:18:52.050 ,6,0,0.,4.8,1.,4.8,0.,4.8,0.,4.8
1979-07-26 06:18:56.850 ,6,0,0.,4.8,1.,4.8,0.,4.8,0.,4.8
1979-07-26 06:19:01.650 ,6,0,0.,4.8,2.,4.8,1.,4.8,1.,4.8
1979-07-26 06:19:06.450 ,6,0,0.,4.8,0.,4.8,0.,4.8,0.,4.8
1979-07-26 06:19:11.250 ,5,0,0.,4.8,1.,4.8,0.,4.8,0.,4.8
1979-07-26 06:19:16.050 ,5,0,0.,4.8,1.,4.8,0.,4.8,0.,4.8
1979-07-26 06:19:20.850 ,5,0,0.,4.8,0.,4.8,0.,4.8,1.,4.8
1979-07-26 06:19:25.650 ,5,0,0.,4.8,1.,4.8,0.,4.8,0.,4.8
1979-07-26 06:19:30.450 ,5,0,0.,4.8,2.,4.8,0.,4.8,0.,4.8
1979-07-26 06:19:35.250 ,5,0,0.,4.8,0.,4.8,0.,4.8,0.,4.8
1979-07-26 06:19:40.050 ,5,0,0.,4.8,1.,4.8,0.,4.8,0.,4.8
1979-07-26 06:19:44.850 ,5,0,0.,4.8,0.,4.8,0.,4.8,0.,4.8
1979-07-26 06:19:49.650 ,5,0,0.,4.8,1.,4.8,0.,4.8,0.,4.8
1979-07-26 06:19:54.450 ,5,0,0.,4.8,0.,4.8,0.,4.8,0.,4.8
1979-07-26 06:19:59.250 ,4,0,0.,4.8,0.,4.8,0.,4.8,0.,4.8
1979-07-26 06:20:04.050 ,4,0,0.,4.8,0.,4.8,1.,4.8,0.,4.8
1979-07-26 06:20:08.850 ,4,0,0.,4.8,0.,4.8,0.,4.8,0.,4.8
1979-07-26 06:20:13.650 ,4,0,0.,4.8,1.,4.8,0.,4.8,0.,4.8
1979-07-26 06:20:18.450 ,4,0,0.,4.8,1.,4.8,0.,4.8,0.,4.8
1979-07-26 06:20:23.250 ,4,0,0.,4.8,0.,4.8,0.,4.8,0.,4.8
1979-07-26 06:20:28.050 ,4,0,0.,4.8,0.,4.8,1.,4.8,0.,4.8
1979-07-26 06:20:32.850 ,4,0,0.,4.8,0.,4.8,0.,4.8,0.,4.8
1979-07-26 06:20:37.650 ,4,0,0.,4.8,1.,4.8,1.,4.8,0.,4.8
1979-07-26 06:20:42.450 ,4,0,0.,4.8,2.,4.8,0.,4.8,0.,4.8
1979-07-26 06:20:47.250 ,3,0,0.,4.8,0.,4.8,1.,4.8,0.,4.8
1979-07-26 06:20:52.050 ,3,0,0.,4.8,0.,4.8,0.,4.8,0.,4.8
1979-07-26 06:20:56.850 ,3,0,0.,4.8,0.,4.8,0.,4.8,0.,4.8
1979-07-26 06:21:01.650 ,3,0,0.,4.8,0.,4.8,0.,4.8,0.,4.8
1979-07-26 06:21:06.450 ,3,0,0.,4.8,1.,4.8,0.,4.8,0.,4.8
1979-07-26 06:21:11.250 ,3,0,0.,4.8,2.,4.8,0.,4.8,0.,4.8
1979-07-26 06:21:16.050 ,3,0,0.,4.8,1.,4.8,0.,4.8,0.,4.8
1979-07-26 06:21:20.850 ,3,0,0.,4.8,0.,4.8,0.,4.8,0.,4.8
1979-07-26 06:21:25.650 ,3,0,0.,4.8,0.,4.8,0.,4.8,1.,4.8
1979-07-26 06:21:30.450 ,3,0,0.,4.8,2.,4.8,0.,4.8,0.,4.8
1979-07-26 06:21:35.250 ,2,0,0.,4.8,2.,4.8,0.,4.8,0.,4.8
1979-07-26 06:21:40.050 ,2,0,0.,4.8,2.,4.8,0.,4.8,0.,4.8
1979-07-26 06:21:44.850 ,2,0,0.,4.8,0.,4.8,0.,4.8,1.,4.8
1979-07-26 06:21:49.650 ,2,0,0.,4.8,1.,4.8,0.,4.8,0.,4.8
1979-07-26 06:21:54.450 ,2,0,0.,4.8,3.,4.8,0.,4.8,0.,4.8
1979-07-26 06:21:59.250 ,2,0,0.,4.8,2.,4.8,0.,4.8,1.,4.8
1979-07-26 06:22:04.050 ,2,0,0.,4.8,0.,4.8,0.,4.8,0.,4.8
1979-07-26 06:22:08.850 ,2,0,0.,4.8,0.,4.8,1.,4.8,0.,4.8
1979-07-26 06:22:13.650 ,2,0,0.,4.8,0.,4.8,0.,4.8,1.,4.8
1979-07-26 06:22:18.450 ,2,0,0.,4.8,1.,4.8,1.,4.8,0.,4.8
1979-07-26 06:22:23.250 ,1,0,0.,4.8,0.,4.8,0.,4.8,0.,4.8
1979-07-26 06:22:28.050 ,1,0,0.,4.8,0.,4.8,0.,4.8,0.,4.8
1979-07-26 06:22:32.850 ,1,0,0.,4.8,0.,4.8,1.,4.8,0.,4.8
1979-07-26 06:22:37.650 ,1,0,0.,4.8,0.,4.8,0.,4.8,0.,4.8
1979-07-26 06:22:42.450 ,1,0,0.,4.8,2.,4.8,0.,4.8,0.,4.8
1979-07-26 06:22:47.250 ,1,0,0.,4.8,0.,4.8,0.,4.8,0.,4.8
1979-07-26 06:22:52.050 ,1,0,0.,4.8,1.,4.8,0.,4.8,0.,4.8
1979-07-26 06:22:56.850 ,1,0,0.,4.8,3.,4.8,0.,4.8,0.,4.8
1979-07-26 06:23:01.650 ,1,0,0.,4.8,0.,4.8,0.,4.8,0.,4.8
1979-07-26 06:23:06.450 ,1,0,0.,4.8,1.,4.8,0.,4.8,0.,4.8
1979-07-26 06:23:11.250 ,0,0,0.,4.8,0.,4.8,0.,4.8,0.,4.8
1979-07-26 06:23:16.050 ,0,0,0.,4.8,1.,4.8,1.,4.8,0.,4.8
1979-07-26 06:23:20.850 ,0,0,0.,4.8,2.,4.8,0.,4.8,0.,4.8
1979-07-26 06:23:25.650 ,0,0,0.,4.8,1.,4.8,0.,4.8,1.,4.8
1979-07-26 06:23:30.450 ,0,0,0.,4.8,3.,4.8,0.,4.8,0.,4.8
1979-07-26 06:23:35.250 ,0,0,0.,4.8,1.,4.8,0.,4.8,0.,4.8
1979-07-26 06:23:40.050 ,0,0,0.,4.8,3.,4.8,0.,4.8,0.,4.8
1979-07-26 06:23:44.850 ,0,0,0.,4.8,0.,4.8,1.,4.8,0.,4.8
1979-07-26 06:23:49.650 ,0,0,0.,4.8,1.,4.8,0.,4.8,0.,4.8
1979-07-26 06:23:54.450 ,0,0,0.,4.8,2.,4.8,0.,4.8,1.,4.8
1979-07-26 06:23:59.250 ,0,0,0.,4.8,1.,4.8,1.,4.8,0.,4.8
1979-07-26 06:24:04.050 ,0,0,0.,4.8,1.,4.8,1.,4.8,0.,4.8
1979-07-26 06:24:08.850 ,0,0,0.,4.8,0.,4.8,0.,4.8,1.,4.8
1979-07-26 06:24:13.650 ,0,0,0.,4.8,0.,4.8,0.,4.8,0.,4.8
1979-07-26 06:24:18.450 ,0,0,0.,4.8,1.,4.8,1.,4.8,2.,4.8
1979-07-26 06:24:23.250 ,0,0,0.,4.8,1.,4.8,1.,4.8,0.,4.8
1979-07-26 06:24:28.050 ,0,0,0.,4.8,0.,4.8,1.,4.8,1.,4.8
1979-07-26 06:24:32.850 ,0,0,0.,4.8,3.,4.8,0.,4.8,0.,4.8
1979-07-26 06:24:37.650 ,0,0,0.,4.8,1.,4.8,0.,4.8,0.,4.8
1979-07-26 06:24:42.450 ,0,0,0.,4.8,1.,4.8,0.,4.8,0.,4.8
1979-07-26 06:24:47.250 ,1,0,0.,4.8,0.,4.8,1.,4.8,1.,4.8
1979-07-26 06:24:52.050 ,1,0,0.,4.8,1.,4.8,0.,4.8,0.,4.8
1979-07-26 06:24:56.850 ,1,0,0.,4.8,0.,4.8,0.,4.8,0.,4.8
1979-07-26 06:25:01.650 ,1,0,0.,4.8,1.,4.8,1.,4.8,0.,4.8
1979-07-26 06:25:06.450 ,1,0,0.,4.8,1.,4.8,0.,4.8,0.,4.8
1979-07-26 06:25:11.250 ,1,0,0.,4.8,1.,4.8,0.,4.8,1.,4.8
1979-07-26 06:25:16.050 ,1,0,0.,4.8,1.,4.8,0.,4.8,0.,4.8
1979-07-26 06:25:20.850 ,1,0,0.,4.8,2.,4.8,0.,4.8,0.,4.8
1979-07-26 06:25:25.650 ,1,0,0.,4.8,1.,4.8,0.,4.8,0.,4.8
1979-07-26 06:25:30.450 ,1,0,0.,4.8,0.,4.8,1.,4.8,0.,4.8
1979-07-26 06:25:35.250 ,2,0,0.,4.8,2.,4.8,0.,4.8,0.,4.8
1979-07-26 06:25:40.050 ,2,0,0.,4.8,0.,4.8,0.,4.8,0.,4.8
1979-07-26 06:25:44.850 ,2,0,0.,4.8,1.,4.8,0.,4.8,0.,4.8
1979-07-26 06:25:49.650 ,2,0,0.,4.8,0.,4.8,0.,4.8,0.,4.8
1979-07-26 06:25:54.450 ,2,0,0.,4.8,1.,4.8,0.,4.8,0.,4.8
1979-07-26 06:25:59.250 ,2,0,0.,4.8,1.,4.8,0.,4.8,0.,4.8
1979-07-26 06:26:04.050 ,2,0,0.,4.8,0.,4.8,0.,4.8,0.,4.8
1979-07-26 06:26:08.850 ,2,0,0.,4.8,0.,4.8,0.,4.8,0.,4.8
1979-07-26 06:26:13.650 ,2,0,0.,4.8,0.,4.8,0.,4.8,0.,4.8
1979-07-26 06:26:18.450 ,2,0,0.,4.8,1.,4.8,0.,4.8,0.,4.8
1979-07-26 06:26:23.250 ,3,0,0.,4.8,2.,4.8,0.,4.8,0.,4.8
1979-07-26 06:26:28.050 ,3,0,0.,4.8,0.,4.8,0.,4.8,0.,4.8
1979-07-26 06:26:32.850 ,3,0,0.,4.8,2.,4.8,0.,4.8,0.,4.8
1979-07-26 06:26:37.650 ,3,0,0.,4.8,1.,4.8,0.,4.8,0.,4.8
1979-07-26 06:26:42.450 ,3,0,0.,4.8,1.,4.8,0.,4.8,0.,4.8
1979-07-26 06:26:47.250 ,3,0,0.,4.8,0.,4.8,0.,4.8,0.,4.8
1979-07-26 06:26:52.050 ,3,0,0.,4.8,0.,4.8,1.,4.8,0.,4.8
1979-07-26 06:26:56.850 ,3,0,0.,4.8,1.,4.8,0.,4.8,0.,4.8
1979-07-26 06:27:01.650 ,3,0,0.,4.8,0.,4.8,0.,4.8,0.,4.8
1979-07-26 06:27:06.450 ,3,0,0.,4.8,0.,4.8,0.,4.8,0.,4.8
1979-07-26 06:27:11.250 ,4,0,0.,4.8,0.,4.8,0.,4.8,0.,4.8
1979-07-26 06:27:16.050 ,4,0,0.,4.8,2.,4.8,0.,4.8,1.,4.8
1979-07-26 06:27:20.850 ,4,0,0.,4.8,2.,4.8,0.,4.8,0.,4.8
1979-07-26 06:27:25.650 ,4,0,0.,4.8,0.,4.8,0.,4.8,0.,4.8
1979-07-26 06:27:30.450 ,4,0,0.,4.8,1.,4.8,0.,4.8,0.,4.8
1979-07-26 06:27:35.250 ,4,0,0.,4.8,2.,4.8,0.,4.8,0.,4.8
1979-07-26 06:27:40.050 ,4,0,0.,4.8,0.,4.8,0.,4.8,0.,4.8
1979-07-26 06:27:44.850 ,4,0,0.,4.8,0.,4.8,0.,4.8,0.,4.8
1979-07-26 06:27:49.650 ,4,0,0.,4.8,0.,4.8,0.,4.8,0.,4.8
1979-07-26 06:27:54.450 ,4,0,0.,4.8,0.,4.8,0.,4.8,0.,4.8
1979-07-26 06:27:59.250 ,5,0,0.,4.8,0.,4.8,0.,4.8,1.,4.8
1979-07-26 06:28:04.050 ,5,0,0.,4.8,1.,4.8,0.,4.8,0.,4.8
1979-07-26 06:28:08.850 ,5,0,0.,4.8,0.,4.8,0.,4.8,0.,4.8
1979-07-26 06:28:13.650 ,5,0,0.,4.8,0.,4.8,0.,4.8,0.,4.8
1979-07-26 06:28:18.450 ,5,0,0.,4.8,1.,4.8,0.,4.8,0.,4.8
1979-07-26 06:28:23.250 ,5,0,0.,4.8,0.,4.8,0.,4.8,0.,4.8
1979-07-26 06:28:28.050 ,5,0,0.,4.8,0.,4.8,0.,4.8,0.,4.8
1979-07-26 06:28:32.850 ,5,0,0.,4.8,0.,4.8,0.,4.8,1.,4.8
1979-07-26 06:28:37.650 ,5,0,0.,4.8,0.,4.8,2.,4.8,0.,4.8
1979-07-26 06:28:42.450 ,5,0,0.,4.8,1.,4.8,0.,4.8,0.,4.8
1979-07-26 06:28:47.250 ,6,0,0.,4.8,0.,4.8,0.,4.8,0.,4.8
1979-07-26 06:28:52.050 ,6,0,0.,4.8,0.,4.8,0.,4.8,0.,4.8
1979-07-26 06:28:56.850 ,6,0,0.,4.8,1.,4.8,0.,4.8,0.,4.8
1979-07-26 06:29:01.650 ,6,0,0.,4.8,1.,4.8,0.,4.8,0.,4.8
1979-07-26 06:29:06.450 ,6,0,0.,4.8,1.,4.8,0.,4.8,0.,4.8
1979-07-26 06:29:11.250 ,6,0,0.,4.8,0.,4.8,0.,4.8,0.,4.8
1979-07-26 06:29:16.050 ,6,0,0.,4.8,0.,4.8,1.,4.8,0.,4.8
1979-07-26 06:29:20.850 ,6,0,0.,4.8,1.,4.8,0.,4.8,0.,4.8
1979-07-26 06:29:25.650 ,6,0,0.,4.8,1.,4.8,0.,4.8,0.,4.8
1979-07-26 06:29:30.450 ,6,0,0.,4.8,1.,4.8,0.,4.8,0.,4.8
1979-07-26 06:29:35.250 ,7,0,0.,4.8,0.,4.8,0.,4.8,0.,4.8
1979-07-26 06:29:40.050 ,7,0,0.,4.8,0.,4.8,0.,4.8,1.,4.8
1979-07-26 06:29:44.850 ,7,0,0.,4.8,1.,4.8,0.,4.8,0.,4.8
1979-07-26 06:29:49.650 ,7,0,0.,4.8,0.,4.8,0.,4.8,1.,4.8
1979-07-26 06:29:54.450 ,7,0,0.,4.8,0.,4.8,0.,4.8,1.,4.8
1979-07-26 06:29:59.250 ,7,0,0.,4.8,0.,4.8,0.,4.8,1.,4.8
1979-07-26 06:30:04.050 ,7,0,0.,4.8,2.,4.8,1.,4.8,0.,4.8
1979-07-26 06:30:08.850 ,7,0,0.,4.8,0.,4.8,0.,4.8,0.,4.8
1979-07-26 06:30:13.650 ,7,0,0.,4.8,2.,4.8,1.,4.8,0.,4.8
1979-07-26 06:30:18.450 ,7,0,0.,4.8,1.,4.8,0.,4.8,0.,4.8
1979-07-26 06:30:23.250 ,7,0,0.,4.8,0.,4.8,0.,4.8,0.,4.8
1979-07-26 06:30:28.050 ,7,0,0.,4.8,0.,4.8,0.,4.8,0.,4.8
1979-07-26 06:30:32.850 ,7,0,0.,4.8,1.,4.8,0.,4.8,0.,4.8
1979-07-26 06:30:37.650 ,7,0,0.,4.8,0.,4.8,0.,4.8,0.,4.8
1979-07-26 06:30:42.450 ,7,0,0.,4.8,2.,4.8,0.,4.8,0.,4.8
1979-07-26 06:30:47.250 ,7,0,0.,4.8,0.,4.8,0.,4.8,0.,4.8
1979-07-26 06:30:52.050 ,7,0,0.,4.8,2.,4.8,0.,4.8,0.,4.8
1979-07-26 06:30:56.850 ,7,0,0.,4.8,1.,4.8,0.,4.8,0.,4.8
1979-07-26 06:31:01.650 ,7,0,0.,4.8,0.,4.8,0.,4.8,0.,4.8
1979-07-26 06:31:06.450 ,7,0,0.,4.8,0.,4.8,0.,4.8,0.,4.8
1979-07-26 06:31:11.250 ,6,0,0.,4.8,2.,4.8,0.,4.8,0.,4.8
1979-07-26 06:31:16.050 ,6,0,0.,4.8,1.,4.8,1.,4.8,0.,4.8
1979-07-26 06:31:20.850 ,6,0,0.,4.8,1.,4.8,0.,4.8,0.,4.8
1979-07-26 06:31:25.650 ,6,0,0.,4.8,3.,4.8,0.,4.8,0.,4.8
1979-07-26 06:31:30.450 ,6,0,0.,4.8,0.,4.8,0.,4.8,0.,4.8
1979-07-26 06:31:35.250 ,6,0,0.,4.8,2.,4.8,0.,4.8,0.,4.8
1979-07-26 06:31:40.050 ,6,0,0.,4.8,1.,4.8,0.,4.8,0.,4.8
1979-07-26 06:31:44.850 ,6,0,0.,4.8,0.,4.8,0.,4.8,1.,4.8
1979-07-26 06:31:49.650 ,6,0,0.,4.8,2.,4.8,0.,4.8,0.,4.8
1979-07-26 06:31:54.450 ,6,0,0.,4.8,3.,4.8,0.,4.8,0.,4.8
1979-07-26 06:31:59.250 ,5,0,0.,4.8,1.,4.8,0.,4.8,1.,4.8
1979-07-26 06:32:04.050 ,5,0,0.,4.8,2.,4.8,1.,4.8,0.,4.8
1979-07-26 06:32:08.850 ,5,0,0.,4.8,0.,4.8,0.,4.8,0.,4.8
1979-07-26 06:32:13.650 ,5,0,0.,4.8,0.,4.8,0.,4.8,0.,4.8
1979-07-26 06:32:18.450 ,5,0,0.,4.8,1.,4.8,0.,4.8,1.,4.8
1979-07-26 06:32:23.250 ,5,0,0.,4.8,0.,4.8,1.,4.8,0.,4.8
1979-07-26 06:32:28.050 ,5,0,0.,4.8,0.,4.8,0.,4.8,0.,4.8
1979-07-26 06:32:32.850 ,5,0,0.,4.8,1.,4.8,0.,4.8,0.,4.8
1979-07-26 06:32:37.650 ,5,0,0.,4.8,1.,4.8,1.,4.8,0.,4.8
1979-07-26 06:32:42.450 ,5,0,0.,4.8,0.,4.8,1.,4.8,0.,4.8
1979-07-26 06:32:47.250 ,4,0,0.,4.8,0.,4.8,0.,4.8,0.,4.8
1979-07-26 06:32:52.050 ,4,0,0.,4.8,1.,4.8,0.,4.8,0.,4.8
1979-07-26 06:32:56.850 ,4,0,0.,4.8,1.,4.8,0.,4.8,0.,4.8
1979-07-26 06:33:01.650 ,4,0,0.,4.8,4.,4.8,0.,4.8,0.,4.8
1979-07-26 06:33:06.450 ,4,0,0.,4.8,1.,4.8,0.,4.8,0.,4.8
1979-07-26 06:33:11.250 ,4,0,0.,4.8,0.,4.8,0.,4.8,0.,4.8
1979-07-26 06:33:16.050 ,4,0,0.,4.8,0.,4.8,0.,4.8,0.,4.8